Location: Sungai Dangang
(2.7500°N, 113.8333°E)
Time: 23:20:54
(UTC+00:00)

Meteor 1-26 Rocket - Pass Details

Date: 16 May 2021
Orbit: 807 x 929 km, 81.3° (Epoch: 15 June)

Event Time Altitude Azimuth Distance (km) Brightness Sun altitude
Rises 12:02:40 0° 189° (S) 3,527 7.3 -22.9°
Reaches altitude 10° 12:05:11 10° 190° (S) 2,569 6.6 -23.5°
Maximum altitude 12:11:00 74° 275° (W) 913 4.4 -24.8°
Drops below altitude 10° 12:16:38 10° 359° (N) 2,479 6.9 -26.1°
Sets 12:19:01 0° 1° (N) 3,395 7.6 -26.6°
